Showing default

PREFIRE-1, 59965

Orbit data source: Space-Track

PREFIRE-1, 59965 is a payload satellite owned by JPL (US) in SSO that was launched on Wed, 05 Jun 2024 UTC via an ELECTRON launch vehicle from the Rocket Lab Launch Complex (RLLC). Payload-class satellites include a variety of spacecraft equipped with specific instruments for various scientific and technological missions. These include communications satellites like Starlink; space stations such as the ISS; scientific satellites like the Hubble; Earth observation satellites from companies like Planet Labs, Umbra, and HawkEye 360; GPS; miniature CubeSats for education and research; and military/defense satellites.

Loading next visibility...
Identifier
59965, 2024-108A
Orbit
SSO
Country
Flag of USUS
Related business
Manufacturer
JPL
Mission
Operational spacecraft
Bus & Motor
CUBESAT 6U, Unknown motor
Mass
~10 kg wet, ~10 kg dry
Launch date (UTC)
2024-06-05 (1 year ago)
Launch vehicle
ELECTRON
Launch site
Rocket Lab Launch Complex (RLLC)
Object type
Payload
Rocket body
Debris
Shape & HBR
Unknown
Radar Cross Section
Medium (>0.1 m² and <1 m²)

Expand to show TLE details & history
Last TLE update: 12 hours ago

TLE from 12 hours ago
0 PREFIRE-1
1 59965U 24108A   25258.24151809  .00007257  00000-0  34167-3 0  9996
2 59965  97.5024  48.2937 0013429 120.1138 240.1430 15.19759744 70778
Epoch: 2025-09-15T05:47Z
TLE epoch observation values (Epoch: 2025-09-15T05:47:47.162Z)
Latitude
-0.00003°
Longitude
-33.1018°
Altitude
514.266 km
Speed
7.604 km/s
True Right ascension
03h 13m 10s
True Declination
0° 00' 00"
Sunlit
Object was in full shadow at epoch
Visualization orbit readout
Latitude
Unknown
Longitude
Unknown
Altitude
Unknown
Speed
Unknown
Apparent Right ascension
Unknown
Apparent Declination
Unknown
Sunlit
N/A
Visualization observer readout
Local Sidereal Time
10:20:04
Azimuth
Unknown
Elevation
Unknown
Doppler factor
Unknown
Orbital elements
Apogee altitude
512.778 km
Perigee altitude
494.295 km
Semi-major axis
6,881.673 km
Eccentricity
0.00134
Inclination
97.5024°
RAAN
48.2937°
Arg. of periapsis
120.1138°
True anomaly
240.00965°
Mean anomaly
240.143°
Eccentric anomaly
240.07631°
Mean motion
3.80191 °/min
Orbital period
94.69 mins
BSTAR
0.00034167
Loading maneuver chart data...
Computing Atmospheric mass density...
Loading historical data...
Loading historical data...
Loading historical data...
Loading historical data...
Loading historical data...
Loading historical data...
Loading historical data...
Other satellites on launch #108 in the year 2024 (2024-06-05 UTC)

Documentation

Showing up to 5 results
|